| time (UTC) | temp C | wind direction | speed KPH | gust KPH | rain 1hr cm | rain 24hr cm | rain mn cm | humidity % | barometer mb |
| 20260505140649 | 11 | 335 | 3.2 | 8.0 | 0.00 | 0.84 | 0.84 | 87 | 1017.5 |
| 20260505124536 | 11 | 263 | 3.2 | 9.7 | 0.00 | 0.84 | 0.84 | 89 | 1017.7 |
| 20260505123600 | 11 | 4 | 6.4 | 17.7 | 0.00 | 0.84 | 0.84 | 89 | 1017.7 |
| 20260505122624 | 11 | 331 | 6.4 | 12.9 | 0.00 | 0.84 | 0.84 | 89 | 1017.8 |
| 20260505120648 | 11 | 348 | 4.8 | 14.5 | 0.00 | 0.84 | 0.84 | 90 | 1018.0 |
| 20260505115536 | 11 | 348 | 6.4 | 17.7 | 0.00 | 0.84 | 0.84 | 93 | 1017.9 |
| 20260505114536 | 10 | 322 | 4.8 | 9.7 | 0.00 | 0.84 | 0.84 | 96 | 1018.0 |
| 20260505113648 | 10 | 322 | 6.4 | 9.7 | 0.00 | 0.84 | 0.84 | 96 | 1018.0 |
| 20260505112712 | 10 | 26 | 4.8 | 9.7 | 0.00 | 0.84 | 0.84 | 96 | 1018.1 |
| 20260505111537 | 10 | 316 | 4.8 | 14.5 | 0.00 | 0.84 | 0.84 | 97 | 1018.1 |
| 20260505100639 | 10 | 5 | 8.0 | 14.5 | 0.00 | 0.84 | 0.84 | 99 | 1018.2 |
| 20260505095537 | 10 | 303 | 4.8 | 12.9 | 0.00 | 0.84 | 0.84 | 99 | 1018.0 |
| 20260505094648 | 10 | 296 | 4.8 | 14.5 | 0.00 | 0.84 | 0.84 | 99 | 1018.1 |
| 20260505093607 | 10 | 347 | 4.8 | 8.0 | 0.00 | 0.84 | 0.84 | 99 | 1018.1 |
| 20260505092536 | 10 | 330 | 3.2 | 8.0 | 0.00 | 0.84 | 0.84 | 99 | 1018.1 |
| 20260505091608 | 10 | 324 | 4.8 | 8.0 | 0.00 | 0.84 | 0.84 | 99 | 1018.1 |
| 20260505090729 | 10 | 321 | 4.8 | 8.0 | 0.00 | 0.84 | 0.84 | 99 | 1018.3 |
| 20260505085752 | 9 | 349 | 4.8 | 8.0 | 0.00 | 0.84 | 0.84 | 99 | 1018.3 |
| 20260505083536 | 9 | 294 | 3.2 | 4.8 | 0.03 | 0.84 | 0.84 | 99 | 1018.3 |
| 20260505082736 | 9 | 296 | 1.6 | 4.8 | 0.03 | 0.84 | 0.84 | 99 | 1018.2 |
| 20260505081647 | 9 | 348 | 4.8 | 9.7 | 0.05 | 0.84 | 0.84 | 99 | 1018.1 |
| 20260505075631 | 9 | 327 | 4.8 | 8.0 | 0.05 | 0.84 | 0.84 | 99 | 1018.0 |
| 20260505073552 | 9 | 337 | 4.8 | 14.5 | 0.05 | 0.81 | 0.81 | 99 | 1018.1 |
| 20260505072728 | 9 | 337 | 3.2 | 4.8 | 0.05 | 0.81 | 0.81 | 99 | 1018.1 |
| 20260505071735 | 9 | 319 | 4.8 | 8.0 | 0.08 | 0.79 | 0.79 | 99 | 1018.0 |
| 20260505065736 | 8 | 324 | 4.8 | 9.7 | 0.13 | 0.79 | 0.79 | 99 | 1018.0 |
| 20260505064601 | 8 | 316 | 3.2 | 4.8 | 0.15 | 0.79 | 0.79 | 99 | 1018.1 |
| 20260505063743 | 8 | 356 | 3.2 | 9.7 | 0.15 | 0.76 | 0.76 | 99 | 1018.1 |
| 20260505062728 | 8 | 304 | 3.2 | 8.0 | 0.18 | 0.76 | 0.76 | 99 | 1018.1 |
| 20260505061615 | 8 | 282 | 3.2 | 8.0 | 0.18 | 0.71 | 0.71 | 99 | 1018.2 |
| 20260505055559 | 8 | 329 | 4.8 | 9.7 | 0.20 | 0.66 | 0.66 | 99 | 1018.2 |
| 20260505054559 | 8 | 339 | 3.2 | 9.7 | 0.23 | 0.64 | 0.64 | 99 | 1018.2 |
| 20260505053759 | 8 | 288 | 4.8 | 12.9 | 0.23 | 0.61 | 0.61 | 99 | 1018.3 |
| 20260505052601 | 8 | 306 | 3.2 | 8.0 | 0.23 | 0.58 | 0.58 | 99 | 1018.2 |
| 20260505051607 | 8 | 299 | 3.2 | 4.8 | 0.20 | 0.53 | 0.53 | 99 | 1018.3 |
| 20260505050552 | 8 | 333 | 1.6 | 8.0 | 0.18 | 0.48 | 0.48 | 99 | 1018.2 |
| 20260505034728 | 8 | 323 | 3.2 | 8.0 | 0.23 | 0.23 | 0.23 | 98 | 1018.1 |
| 20260505032640 | 9 | 314 | 1.6 | 9.7 | 0.13 | 0.13 | 0.13 | 95 | 1018.2 |
| 20260505030647 | 10 | 294 | 1.6 | 4.8 | 0.00 | 0.00 | 0.00 | 90 | 1018.3 |
| 20260505024536 | 10 | 329 | 3.2 | 8.0 | 0.00 | 0.00 | 0.00 | 87 | 1018.4 |
| 20260505023632 | 10 | 305 | 1.6 | 3.2 | 0.00 | 0.00 | 0.00 | 87 | 1018.4 |
| 20260505022528 | 10 | 262 | 1.6 | 4.8 | 0.00 | 0.00 | 0.00 | 86 | 1018.5 |
| 20260505021704 | 10 | 332 | 3.2 | 8.0 | 0.00 | 0.00 | 0.00 | 86 | 1018.6 |
| 20260505020752 | 10 | 277 | 0.0 | 3.2 | 0.00 | 0.00 | 0.00 | 87 | 1018.6 |
| 20260505015624 | 10 | 291 | 1.6 | 4.8 | 0.00 | 0.00 | 0.00 | 86 | 1018.6 |
| 20260505014625 | 10 | 320 | 3.2 | 4.8 | 0.00 | 0.00 | 0.00 | 85 | 1018.7 |
| 20260505013608 | 10 | 318 | 4.8 | 8.0 | 0.00 | 0.00 | 0.00 | 85 | 1018.6 |
| 20260505012616 | 10 | 335 | 3.2 | 9.7 | 0.00 | 0.00 | 0.00 | 86 | 1018.7 |
| 20260505011728 | 11 | 327 | 3.2 | 8.0 | 0.00 | 0.00 | 0.00 | 86 | 1018.6 |
| 20260505010616 | 11 | 331 | 6.4 | 9.7 | 0.00 | 0.00 | 0.00 | 86 | 1018.7 |
| 20260505005600 | 11 | 303 | 3.2 | 8.0 | 0.00 | 0.00 | 0.00 | 86 | 1018.9 |
| 20260505004712 | 11 | 318 | 3.2 | 8.0 | 0.00 | 0.00 | 0.00 | 87 | 1019.0 |
| 20260505001632 | 11 | 339 | 1.6 | 9.7 | 0.00 | 0.00 | 0.00 | 88 | 1019.1 |
| 20260505000712 | 11 | 321 | 1.6 | 4.8 | 0.00 | 0.00 | 0.00 | 88 | 1019.3 |
| 20260504235600 | 11 | 0.0 | 0.0 | 0.00 | 0.00 | 0.00 | 88 | 1019.3 | |
| 20260504234536 | 11 | 334 | 1.6 | 8.0 | 0.00 | 0.00 | 0.00 | 88 | 1019.4 |
| 20260504232624 | 11 | 306 | 1.6 | 3.2 | 0.00 | 0.00 | 0.00 | 88 | 1019.5 |
| 20260504230737 | 11 | 326 | 3.2 | 4.8 | 0.00 | 0.00 | 0.00 | 89 | 1019.4 |
| 20260504225601 | 11 | 289 | 1.6 | 3.2 | 0.00 | 0.00 | 0.00 | 89 | 1019.6 |
| 20260504223537 | 12 | 296 | 0.0 | 3.2 | 0.00 | 0.00 | 0.00 | 89 | 1019.7 |
| 20260504222601 | 12 | 305 | 0.0 | 4.8 | 0.00 | 0.00 | 0.00 | 88 | 1019.7 |
| 20260504220626 | 12 | 0.0 | 0.0 | 0.00 | 0.00 | 0.00 | 88 | 1019.9 | |
| 20260504214713 | 12 | 0.0 | 0.0 | 0.00 | 0.00 | 0.00 | 87 | 1019.9 | |
| 20260504212601 | 12 | 297 | 0.0 | 3.2 | 0.00 | 0.00 | 0.00 | 87 | 1019.9 |
| 20260504211601 | 12 | 0.0 | 0.0 | 0.00 | 0.00 | 0.00 | 86 | 1019.9 | |
| 20260504210625 | 12 | 296 | 0.0 | 3.2 | 0.00 | 0.00 | 0.00 | 86 | 1020.0 |
| 20260504202737 | 13 | 0.0 | 0.0 | 0.00 | 0.00 | 0.00 | 82 | 1020.0 | |
| 20260504201713 | 13 | 0.0 | 0.0 | 0.00 | 0.00 | 0.00 | 82 | 1020.2 | |
| 20260504200601 | 14 | 298 | 1.6 | 3.2 | 0.00 | 0.00 | 0.00 | 81 | 1020.1 |
| 20260504193625 | 15 | 0.0 | 0.0 | 0.00 | 0.00 | 0.00 | 79 | 1019.8 | |
| 20260504192625 | 15 | 298 | 3.2 | 8.0 | 0.00 | 0.00 | 0.00 | 77 | 1019.6 |
| 20260504191713 | 15 | 0.0 | 0.0 | 0.00 | 0.00 | 0.00 | 77 | 1019.7 | |
| 20260504185713 | 15 | 0.0 | 0.0 | 0.00 | 0.00 | 0.00 | 75 | 1019.7 | |
| 20260504183537 | 16 | 283 | 0.0 | 3.2 | 0.00 | 0.00 | 0.00 | 72 | 1019.7 |
| 20260504182713 | 16 | 298 | 1.6 | 4.8 | 0.00 | 0.00 | 0.00 | 72 | 1019.4 |
| 20260504181601 | 16 | 294 | 1.6 | 4.8 | 0.00 | 0.00 | 0.00 | 71 | 1019.5 |
| 20260504174209 | 17 | 301 | 3.2 | 4.8 | 0.00 | 0.00 | 0.00 | 68 | 1019.3 |
| 20260504171128 | 17 | 329 | 1.6 | 8.0 | 0.00 | 0.00 | 0.00 | 68 | 1019.4 |
| 20260504160112 | 18 | 343 | 4.8 | 12.9 | 0.00 | 0.00 | 0.00 | 63 | 1019.3 |